Vorticity
3 2 9 8 15 22 29 21 16 9 8 7 4 4 5 3 7 6 6 9 5 8 9 7 18 20 26 24 22 18 15 13 10 12 17 18 17 20 19 26 29 16 13 -5
10 14 15 18 24 23 23 20 7 -0 -3 -1 5 4 2 1 7 5 8 5 11 8 4 10 22 19 8 7 11 12 11 11 13 15 21 21 12 10 23 29 23 14 16 14
14 19 20 18 18 16 16 20 20 10 4 3 3 5 0 9 11 7 6 6 8 2 15 16 14 7 9 18 16 14 15 15 17 21 9 11 13 15 25 21 9 17 13 21
14 16 17 6 4 3 -1 4 3 -2 2 8 5 7 9 8 4 7 9 9 6 13 18 20 14 13 12 13 19 18 16 16 20 20 20 16 12 13 3 4 -3 -4 7 1
12 7 -0 4 4 5 3 1 4 4 5 9 8 7 4 5 6 9 11 13 10 23 21 15 13 12 17 15 16 19 15 17 15 15 17 15 19 20 21 -0 -14 2 23 42
4 3 4 5 5 4 5 6 6 6 8 10 11 4 5 7 8 9 13 9 19 20 17 17 15 17 18 19 18 14 14 12 10 9 10 8 9 10 25 32 34 33 22 10
5 5 5 7 8 10 8 6 8 9 7 7 5 9 6 10 10 14 16 10 15 14 14 17 15 19 17 13 11 12 15 14 12 14 19 18 15 18 14 17 28 23 16 8
5 5 8 10 10 9 10 9 9 9 8 7 11 15 9 12 13 14 15 10 12 17 16 18 12 15 9 6 7 13 13 14 17 12 21 7 19 23 27 17 2 5 12 8
10 11 9 9 7 9 7 8 9 9 8 12 11 18 19 14 13 12 12 16 21 18 14 13 6 10 23 33 44 11 17 24 7 2 6 13 -7 5 4 11 3 -1 -0 3
6 10 18 25 31 34 34 34 31 25 20 16 17 17 15 15 10 14 15 22 15 13 7 17 26 37 27 26 19 10 3 8 5 4 12 35 28 19 25 30 22 26 33 31
30 34 30 27 26 23 22 20 23 26 28 34 26 17 16 9 13 15 25 22 10 15 26 30 28 11 1 3 7 8 11 7 8 9 9 8 9 7 6 5 6 9 16 20
23 19 15 13 11 9 7 10 18 20 16 32 34 20 17 6 15 18 23 12 20 25 20 9 9 8 12 5 18 10 9 3 6 5 5 6 6 7 8 7 6 8 11 14
10 9 8 9 7 7 6 15 23 29 14 24 25 27 29 26 35 21 9 21 25 5 3 8 9 7 7 8 6 1 1 1 8 6 6 10 12 10 12 13 15 18 12 7
13 13 12 10 9 10 15 24 26 22 18 30 39 31 36 11 23 8 5 22 6 12 11 8 6 2 7 5 11 8 4 7 8 15 16 17 25 29 32 28 23 22 18 18
17 20 20 17 16 17 26 29 32 15 16 19 48 8 2 -4 11 10 37 5 14 10 7 4 5 6 5 7 9 8 15 21 21 22 30 24 21 16 25 29 29 29 25 21
25 22 25 24 20 23 27 28 17 16 14 17 30 16 15 15 17 13 10 9 8 8 2 3 4 5 8 13 18 24 28 32 34 22 22 25 23 27 25 22 18 13 9 7
26 26 24 15 16 24 22 22 20 21 18 8 11 11 17 14 11 16 3 9 10 2 3 4 4 14 18 26 24 21 25 22 26 14 9 9 8 8 8 9 10 10 10 10
25 27 15 12 18 21 26 18 14 7 11 12 5 19 22 11 5 12 9 12 3 2 5 5 19 18 27 14 17 14 11 10 12 10 10 11 12 12 13 13 12 11 11 10
31 18 10 16 26 26 16 10 10 10 9 6 21 16 16 11 10 8 9 8 4 8 11 20 21 26 17 12 12 9 10 11 11 9 9 6 4 3 4 5 5 5 6 6
29 11 10 24 17 11 12 10 7 8 15 12 15 30 9 14 10 10 10 11 6 16 21 22 24 22 13 9 10 12 8 8 8 3 3 6 7 7 7 6 6 5 5 6
20 7 21 13 12 12 9 9 9 15 7 22 26 10 9 17 13 7 9 3 11 17 20 26 21 10 13 9 9 6 7 6 1 3 5 4 4 4 3 3 3 3 4 4
11 11 14 13 12 10 13 8 9 14 27 21 8 9 10 12 5 9 7 11 17 21 26 24 15 11 10 7 8 5 3 2 3 4 4 4 3 3 3 3 6 6 6 5
9 15 15 12 11 10 9 2 8 26 15 10 15 6 10 8 5 12 7 7 13 21 27 20 13 12 11 7 9 5 2 2 4 4 4 4 4 4 3 4 5 6 7 7
12 15 12 10 10 11 6 9 18 17 5 6 13 4 12 5 13 9 10 7 7 16 15 12 11 13 9 7 6 10 5 3 1 2 2 1 2 3 4 6 8 7 7 5
20 12 8 9 10 8 5 1 18 23 9 9 11 5 9 8 5 4 11 8 4 7 9 13 14 11 11 12 9 6 7 5 4 2 2 1 2 4 5 7 8 10 7 6
14 8 10 7 8 5 6 10 6 27 10 8 11 7 5 7 5 4 6 7 8 7 8 4 4 6 9 18 14 10 10 9 7 5 3 3 4 6 6 8 7 10 6 5
9 5 7 9 5 5 2 5 13 11 13 3 12 9 3 6 6 6 4 6 6 8 6 2 2 4 6 14 12 12 10 9 10 11 8 6 6 7 6 7 6 9 8 7
Height
5695 5687 5678 5671 5665 5661 5653 5650 5647 5642 5637 5635 5629 5622 5618 5615 5610 5605 5600 5596 5590 5585 5579 5575 5567 5560 5553 5547 5542 5539 5533 5524 5522 5521 5520 5515 5513 5511 5511 5508 5508 5505 5505 5507
5682 5673 5666 5659 5653 5646 5641 5640 5636 5633 5627 5621 5616 5610 5603 5599 5595 5591 5585 5579 5573 5567 5561 5554 5549 5542 5537 5532 5527 5522 5518 5511 5505 5503 5502 5500 5497 5497 5495 5493 5492 5491 5493 5493
5668 5661 5654 5648 5642 5636 5631 5626 5623 5621 5617 5609 5603 5598 5591 5585 5578 5574 5568 5562 5555 5548 5544 5536 5531 5525 5521 5515 5510 5504 5497 5496 5492 5490 5487 5484 5482 5482 5483 5481 5478 5480 5478 5480
5657 5650 5643 5635 5631 5626 5621 5615 5610 5607 5601 5595 5588 5581 5575 5569 5564 5560 5551 5546 5539 5532 5525 5519 5513 5509 5504 5500 5495 5488 5482 5478 5479 5477 5476 5474 5471 5471 5472 5470 5469 5464 5468 5464
5644 5638 5631 5624 5618 5613 5608 5600 5595 5592 5586 5579 5573 5565 5559 5553 5548 5544 5537 5530 5524 5514 5507 5501 5499 5492 5489 5484 5482 5476 5472 5468 5464 5464 5463 5460 5457 5459 5459 5458 5455 5452 5453 5451
5630 5623 5617 5610 5602 5596 5590 5584 5578 5572 5571 5562 5556 5552 5542 5537 5529 5528 5518 5514 5508 5501 5495 5489 5484 5479 5476 5470 5467 5464 5462 5458 5453 5451 5452 5448 5448 5449 5445 5444 5443 5441 5442 5442
5614 5607 5599 5592 5584 5576 5570 5564 5558 5552 5550 5543 5538 5532 5528 5521 5513 5510 5504 5497 5492 5488 5482 5477 5473 5469 5464 5460 5457 5453 5450 5445 5442 5439 5439 5436 5438 5436 5435 5434 5434 5433 5433 5434
5594 5587 5579 5572 5564 5556 5550 5543 5536 5529 5528 5523 5519 5513 5508 5504 5498 5492 5487 5481 5477 5472 5468 5464 5461 5459 5455 5452 5448 5444 5440 5437 5434 5432 5430 5428 5430 5428 5427 5426 5428 5426 5426 5426
5573 5564 5558 5549 5541 5533 5526 5521 5512 5505 5501 5504 5496 5494 5490 5485 5482 5479 5473 5468 5462 5457 5455 5451 5447 5445 5440 5440 5438 5435 5433 5430 5430 5428 5424 5421 5424 5422 5421 5419 5422 5417 5417 5417
5552 5543 5534 5525 5517 5507 5501 5496 5488 5480 5476 5479 5478 5476 5471 5467 5465 5464 5460 5456 5453 5448 5445 5442 5439 5437 5434 5433 5433 5433 5430 5427 5425 5423 5419 5417 5416 5414 5413 5413 5414 5410 5409 5408
5529 5520 5511 5504 5496 5488 5481 5477 5469 5461 5455 5459 5460 5459 5455 5452 5450 5449 5449 5446 5443 5440 5438 5436 5434 5432 5430 5430 5429 5426 5426 5421 5420 5417 5415 5413 5410 5409 5408 5406 5403 5402 5401 5399
5509 5502 5495 5489 5482 5475 5467 5463 5454 5445 5439 5442 5442 5442 5439 5437 5437 5436 5437 5435 5435 5433 5432 5431 5429 5428 5427 5426 5425 5423 5422 5419 5415 5413 5410 5407 5403 5402 5399 5398 5396 5394 5393 5392
5493 5488 5482 5475 5468 5461 5453 5447 5440 5431 5427 5428 5427 5424 5424 5425 5425 5425 5428 5427 5428 5428 5427 5425 5424 5423 5421 5421 5420 5418 5415 5412 5407 5404 5403 5399 5396 5393 5390 5388 5386 5386 5386 5386
5479 5471 5465 5459 5452 5446 5439 5434 5427 5422 5418 5417 5417 5413 5415 5416 5418 5419 5421 5421 5423 5423 5421 5420 5419 5417 5416 5414 5412 5411 5407 5403 5399 5397 5393 5391 5388 5384 5380 5379 5378 5378 5378 5379
5462 5454 5448 5442 5437 5432 5426 5420 5416 5413 5412 5411 5411 5410 5410 5412 5413 5414 5416 5417 5417 5416 5416 5415 5414 5412 5408 5406 5405 5402 5397 5393 5390 5388 5387 5385 5383 5380 5377 5375 5374 5375 5375 5376
5445 5438 5432 5427 5424 5419 5414 5410 5407 5406 5404 5403 5404 5407 5407 5407 5407 5409 5411 5411 5411 5411 5411 5410 5408 5406 5403 5399 5397 5393 5389 5385 5384 5385 5384 5383 5382 5380 5378 5377 5377 5376 5376 5377
5429 5424 5421 5417 5414 5410 5406 5403 5401 5401 5401 5401 5402 5403 5403 5403 5404 5405 5407 5408 5408 5408 5407 5406 5403 5400 5398 5395 5392 5389 5387 5385 5385 5385 5385 5385 5384 5383 5381 5380 5379 5378 5377 5377
5417 5414 5413 5410 5406 5403 5400 5398 5398 5399 5399 5400 5401 5401 5400 5401 5403 5403 5404 5405 5406 5405 5403 5401 5398 5395 5394 5393 5391 5389 5388 5388 5388 5387 5387 5386 5385 5385 5383 5382 5381 5380 5379 5378
5409 5408 5407 5404 5401 5398 5397 5396 5396 5396 5399 5398 5398 5398 5399 5400 5401 5402 5404 5404 5402 5401 5398 5395 5393 5391 5392 5392 5392 5391 5391 5391 5390 5389 5389 5388 5388 5387 5385 5384 5383 5381 5380 5378
5404 5404 5402 5399 5398 5396 5396 5395 5396 5396 5396 5396 5396 5396 5399 5401 5400 5402 5402 5401 5399 5396 5393 5390 5389 5389 5391 5391 5392 5393 5392 5392 5392 5392 5391 5391 5390 5388 5387 5385 5383 5381 5379 5376
5399 5399 5398 5397 5396 5395 5394 5394 5395 5395 5395 5394 5394 5396 5398 5399 5400 5400 5399 5397 5394 5391 5389 5388 5388 5389 5390 5391 5393 5393 5393 5393 5393 5393 5392 5391 5390 5389 5387 5384 5382 5379 5376 5373
5395 5395 5395 5395 5394 5394 5395 5394 5394 5394 5393 5393 5395 5396 5397 5398 5398 5398 5398 5396 5392 5389 5387 5386 5387 5389 5390 5391 5392 5393 5393 5393 5393 5393 5392 5390 5389 5387 5385 5383 5380 5377 5373 5369
5391 5392 5393 5394 5394 5394 5394 5394 5394 5393 5393 5394 5395 5396 5397 5397 5398 5398 5397 5395 5392 5389 5387 5387 5388 5389 5390 5390 5391 5392 5392 5392 5392 5391 5390 5388 5387 5385 5382 5380 5377 5373 5369 5365
5390 5391 5392 5392 5393 5393 5393 5393 5393 5392 5393 5393 5394 5396 5396 5397 5397 5397 5396 5395 5393 5391 5389 5389 5389 5389 5389 5389 5389 5390 5390 5390 5389 5388 5386 5385 5383 5381 5379 5376 5373 5369 5364 5360
5389 5390 5391 5391 5392 5392 5393 5392 5391 5391 5392 5393 5394 5395 5396 5396 5396 5396 5395 5395 5393 5392 5390 5389 5389 5388 5388 5387 5387 5386 5386 5385 5385 5384 5382 5381 5379 5377 5374 5371 5368 5364 5359 5355
5389 5390 5391 5391 5391 5391 5391 5391 5391 5390 5391 5392 5393 5394 5395 5395 5395 5395 5394 5393 5392 5391 5390 5388 5387 5386 5385 5384 5382 5381 5380 5379 5379 5377 5376 5375 5374 5371 5369 5366 5362 5358 5354 5349
5389 5390 5391 5391 5391 5390 5389 5389 5388 5388 5389 5390 5392 5393 5393 5393 5393 5392 5392 5391 5390 5388 5387 5386 5384 5382 5381 5379 5377 5375 5374 5373 5372 5371 5370 5368 5367 5365 5362 5359 5356 5352 5348 5343